owner,sensor,date,latitude,longitude,vertical_datum,wind_speed,wind_to_direction,wind_speed_of_gust,qcFlag 
FWRI,ioos:station:FWRI:OTB:1,2013-03-13T14:59:00Z,27.9320,-82.6475,0.0,21.38261,73.48506,-9999.0,'1111122,1111122,1111122' 
FWRI,ioos:station:FWRI:OTB:1,2013-03-13T15:59:00Z,27.9320,-82.6475,0.0,20.45167,72.15514,-9999.0,'1111122,1111122,1111122' 
FWRI,ioos:station:FWRI:OTB:1,2013-03-13T16:59:00Z,27.9320,-82.6475,0.0,20.98,68.16952,-9999.0,'1111122,1111122,1111122' 
FWRI,ioos:station:FWRI:OTB:1,2013-03-13T17:59:00Z,27.9320,-82.6475,0.0,26.69334,96.24483,-9999.0,'1111122,1111122,1111122' 
FWRI,ioos:station:FWRI:OTB:1,2013-03-13T18:59:00Z,27.9320,-82.6475,0.0,23.48166,97.12371,-9999.0,'1111122,1111122,1111122' 
FWRI,ioos:station:FWRI:OTB:1,2013-03-13T19:59:00Z,27.9320,-82.6475,0.0,22.92334,104.1468,-9999.0,'1111122,1111122,1111122' 
FWRI,ioos:station:FWRI:OTB:1,2013-03-13T20:59:00Z,27.9320,-82.6475,0.0,23.97167,129.7346,-9999.0,'1111122,1111122,1111122' 
FWRI,ioos:station:FWRI:OTB:1,2013-03-13T21:59:00Z,27.9320,-82.6475,0.0,25.05833,130.8237,-9999.0,'1111122,1111122,1111122' 
FWRI,ioos:station:FWRI:OTB:1,2013-03-13T22:59:00Z,27.9320,-82.6475,0.0,26.52833,133.8736,-9999.0,'1111122,1111122,1111122' 
FWRI,ioos:station:FWRI:OTB:1,2013-03-13T23:59:00Z,27.9320,-82.6475,0.0,26.315,134.3995,-9999.0,'1111122,1111122,1111122' 
FWRI,ioos:station:FWRI:OTB:1,2013-03-14T00:59:00Z,27.9320,-82.6475,0.0,19.41833,138.2234,-9999.0,'1111122,1111122,1111122' 
FWRI,ioos:station:FWRI:OTB:1,2013-03-14T01:59:00Z,27.9320,-82.6475,0.0,20.89,133.8038,-9999.0,'1111122,1111122,1111122' 
FWRI,ioos:station:FWRI:OTB:1,2013-03-14T02:59:00Z,27.9320,-82.6475,0.0,24.68333,136.2406,-9999.0,'1111122,1111122,1111122' 
FWRI,ioos:station:FWRI:OTB:1,2013-03-14T03:59:00Z,27.9320,-82.6475,0.0,22.54501,135.0364,-9999.0,'1111122,1111122,1111122' 
FWRI,ioos:station:FWRI:OTB:1,2013-03-14T04:59:00Z,27.9320,-82.6475,0.0,20.09667,121.5835,-9999.0,'1111122,1111122,1111122' 
FWRI,ioos:station:FWRI:OTB:1,2013-03-14T05:59:00Z,27.9320,-82.6475,0.0,22.31833,111.0,-9999.0,'1111122,1111122,1111122' 
FWRI,ioos:station:FWRI:OTB:1,2013-03-14T06:59:00Z,27.9320,-82.6475,0.0,27.64334,103.4322,-9999.0,'1111122,1111122,1111122' 
FWRI,ioos:station:FWRI:OTB:1,2013-03-14T07:59:00Z,27.9320,-82.6475,0.0,26.545,79.41771,-9999.0,'1111122,1111122,1111122' 
FWRI,ioos:station:FWRI:OTB:1,2013-03-14T08:59:00Z,27.9320,-82.6475,0.0,26.25333,76.38854,-9999.0,'1111122,1111122,1111122' 
FWRI,ioos:station:FWRI:OTB:1,2013-03-14T09:59:00Z,27.9320,-82.6475,0.0,26.56167,73.3823,-9999.0,'1111122,1111122,1111122' 
FWRI,ioos:station:FWRI:OTB:1,2013-03-14T10:59:00Z,27.9320,-82.6475,0.0,31.49999,80.54555,-9999.0,'1111122,1111122,1111122' 
FWRI,ioos:station:FWRI:OTB:1,2013-03-14T11:59:00Z,27.9320,-82.6475,0.0,31.25333,77.74481,-9999.0,'1111122,1111122,1111122' 
FWRI,ioos:station:FWRI:OTB:1,2013-03-14T12:59:00Z,27.9320,-82.6475,0.0,30.41,76.58933,-9999.0,'1111122,1111122,1111122' 
FWRI,ioos:station:FWRI:OTB:1,2013-03-14T13:59:00Z,27.9320,-82.6475,0.0,30.68833,73.01249,-9999.0,'1111122,1111122,1111122' 
FWRI,ioos:station:FWRI:OTB:1,2013-03-14T14:59:00Z,27.9320,-82.6475,0.0,28.62833,74.30053,-9999.0,'1111122,1111122,1111122' 
FWRI,ioos:station:FWRI:OTB:1,2013-03-14T15:59:00Z,27.9320,-82.6475,0.0,22.69667,70.32936,-9999.0,'1111122,1111122,1111122' 
FWRI,ioos:station:FWRI:OTB:1,2013-03-14T16:59:00Z,27.9320,-82.6475,0.0,19.29167,70.22334,-9999.0,'1111122,1111122,1111122' 
FWRI,ioos:station:FWRI:OTB:1,2013-03-14T17:59:00Z,27.9320,-82.6475,0.0,22.65167,84.61679,-9999.0,'1111122,1111122,1111122' 
FWRI,ioos:station:FWRI:OTB:1,2013-03-14T18:59:00Z,27.9320,-82.6475,0.0,24.90166,95.89175,-9999.0,'1111122,1111122,1111122' 
FWRI,ioos:station:FWRI:OTB:1,2013-03-14T19:59:00Z,27.9320,-82.6475,0.0,22.7,106.1021,-9999.0,'1111122,1111122,1111122' 
FWRI,ioos:station:FWRI:OTB:1,2013-03-14T20:59:00Z,27.9320,-82.6475,0.0,19.37833,104.226,-9999.0,'1111122,1111122,1111122' 
FWRI,ioos:station:FWRI:OTB:1,2013-03-14T21:59:00Z,27.9320,-82.6475,0.0,19.85833,111.2251,-9999.0,'1111122,1111122,1111122' 
FWRI,ioos:station:FWRI:OTB:1,2013-03-14T22:59:00Z,27.9320,-82.6475,0.0,20.88833,118.0331,-9999.0,'1111122,1111122,1111122' 
FWRI,ioos:station:FWRI:OTB:1,2013-03-14T23:59:00Z,27.9320,-82.6475,0.0,23.25833,122.6346,-9999.0,'1111122,1111122,1111122' 
FWRI,ioos:station:FWRI:OTB:1,2013-03-15T00:59:00Z,27.9320,-82.6475,0.0,21.49,116.5195,-9999.0,'1111122,1111122,1111122' 
FWRI,ioos:station:FWRI:OTB:1,2013-03-15T01:59:00Z,27.9320,-82.6475,0.0,20.79,111.4185,-9999.0,'1111122,1111122,1111122' 
FWRI,ioos:station:FWRI:OTB:1,2013-03-15T02:59:00Z,27.9320,-82.6475,0.0,21.20333,111.3686,-9999.0,'1111122,1111122,1111122' 
FWRI,ioos:station:FWRI:OTB:1,2013-03-15T03:59:00Z,27.9320,-82.6475,0.0,25.60833,95.07765,-9999.0,'1111122,1111122,1111122' 
FWRI,ioos:station:FWRI:OTB:1,2013-03-15T04:59:00Z,27.9320,-82.6475,0.0,24.47667,76.96019,-9999.0,'1111122,1111122,1111122' 
FWRI,ioos:station:FWRI:OTB:1,2013-03-15T05:59:00Z,27.9320,-82.6475,0.0,24.05667,64.42288,-9999.0,'1111122,1111122,1111122' 
FWRI,ioos:station:FWRI:OTB:1,2013-03-15T06:59:00Z,27.9320,-82.6475,0.0,23.44333,36.80005,-9999.0,'1111122,1111122,1111122' 
FWRI,ioos:station:FWRI:OTB:1,2013-03-15T07:59:00Z,27.9320,-82.6475,0.0,17.09167,21.96778,-9999.0,'1111122,1111122,1111122' 
FWRI,ioos:station:FWRI:OTB:1,2013-03-15T08:59:00Z,27.9320,-82.6475,0.0,9.683334,6.104665,-9999.0,'1111122,1111122,1111122' 
FWRI,ioos:station:FWRI:OTB:1,2013-03-15T09:59:00Z,27.9320,-82.6475,0.0,8.67,12.39438,-9999.0,'1111122,1111122,1111122' 
FWRI,ioos:station:FWRI:OTB:1,2013-03-15T10:59:00Z,27.9320,-82.6475,0.0,7.85,22.23062,-9999.0,'1111122,1111122,1111122' 
FWRI,ioos:station:FWRI:OTB:1,2013-03-15T13:59:00Z,27.9320,-82.6475,0.0,7.780489,99.1107,-9999.0,'1111122,1111122,1111122' 
FWRI,ioos:station:FWRI:OTB:1,2013-03-15T14:59:00Z,27.9320,-82.6475,0.0,8.041667,21.12146,-9999.0,'1111122,1111122,1111122' 
FWRI,ioos:station:FWRI:OTB:1,2013-03-15T15:59:00Z,27.9320,-82.6475,0.0,2.968334,6.482776,-9999.0,'1111122,1111122,1111122' 
FWRI,ioos:station:FWRI:OTB:1,2013-03-15T16:59:00Z,27.9320,-82.6475,0.0,4.426667,138.285,-9999.0,'1111122,1111122,1111122' 
FWRI,ioos:station:FWRI:OTB:1,2013-03-15T17:59:00Z,27.9320,-82.6475,0.0,8.815001,66.23218,-9999.0,'1111122,1111122,1111122' 
FWRI,ioos:station:FWRI:OTB:1,2013-03-15T18:59:00Z,27.9320,-82.6475,0.0,9.376666,9.267665,-9999.0,'1111122,1111122,1111122' 
FWRI,ioos:station:FWRI:OTB:1,2013-03-15T19:59:00Z,27.9320,-82.6475,0.0,15.43666,140.5952,-9999.0,'1111122,1111122,1111122' 
FWRI,ioos:station:FWRI:OTB:1,2013-03-15T20:59:00Z,27.9320,-82.6475,0.0,22.72167,154.5236,-9999.0,'1111122,1111122,1111122' 
FWRI,ioos:station:FWRI:OTB:1,2013-03-15T21:59:00Z,27.9320,-82.6475,0.0,19.12167,150.1137,-9999.0,'1111122,1111122,1111122' 
FWRI,ioos:station:FWRI:OTB:1,2013-03-15T22:59:00Z,27.9320,-82.6475,0.0,20.84,147.2975,-9999.0,'1111122,1111122,1111122' 
FWRI,ioos:station:FWRI:OTB:1,2013-03-15T23:59:00Z,27.9320,-82.6475,0.0,18.98334,145.2375,-9999.0,'1111122,1111122,1111122' 
FWRI,ioos:station:FWRI:OTB:1,2013-03-16T00:59:00Z,27.9320,-82.6475,0.0,11.34,148.4738,-9999.0,'1111122,1111122,1111122' 
FWRI,ioos:station:FWRI:OTB:1,2013-03-16T01:59:00Z,27.9320,-82.6475,0.0,7.106668,166.264,-9999.0,'1111122,1111122,1111122' 
FWRI,ioos:station:FWRI:OTB:1,2013-03-16T02:59:00Z,27.9320,-82.6475,0.0,6.776666,163.7158,-9999.0,'1111122,1111122,1111122' 
FWRI,ioos:station:FWRI:OTB:1,2013-03-16T03:59:00Z,27.9320,-82.6475,0.0,7.916666,151.5719,-9999.0,'1111122,1111122,1111122' 
FWRI,ioos:station:FWRI:OTB:1,2013-03-16T04:59:00Z,27.9320,-82.6475,0.0,11.20333,130.6304,-9999.0,'1111122,1111122,1111122' 
FWRI,ioos:station:FWRI:OTB:1,2013-03-16T05:59:00Z,27.9320,-82.6475,0.0,7.453333,128.1548,-9999.0,'1111122,1111122,1111122' 
FWRI,ioos:station:FWRI:OTB:1,2013-03-16T06:59:00Z,27.9320,-82.6475,0.0,6.411668,136.3989,-9999.0,'1111122,1111122,1111122' 
FWRI,ioos:station:FWRI:OTB:1,2013-03-16T07:59:00Z,27.9320,-82.6475,0.0,3.858334,39.36256,-9999.0,'1111122,1111122,1111122' 
FWRI,ioos:station:FWRI:OTB:1,2013-03-16T08:59:00Z,27.9320,-82.6475,0.0,8.936666,302.8976,-9999.0,'1111122,1111122,1111122' 
FWRI,ioos:station:FWRI:OTB:1,2013-03-16T09:59:00Z,27.9320,-82.6475,0.0,10.54,308.6774,-9999.0,'1111122,1111122,1111122' 
FWRI,ioos:station:FWRI:OTB:1,2013-03-16T10:59:00Z,27.9320,-82.6475,0.0,11.19667,319.77,-9999.0,'1111122,1111122,1111122' 
FWRI,ioos:station:FWRI:OTB:1,2013-03-16T14:59:00Z,27.9320,-82.6475,0.0,12.51111,302.1436,-9999.0,'1111122,1111122,1111122' 
FWRI,ioos:station:FWRI:OTB:1,2013-03-16T15:59:00Z,27.9320,-82.6475,0.0,14.185,308.2705,-9999.0,'1111122,1111122,1111122' 
FWRI,ioos:station:FWRI:OTB:1,2013-03-16T16:59:00Z,27.9320,-82.6475,0.0,12.63667,319.6622,-9999.0,'1111122,1111122,1111122' 
FWRI,ioos:station:FWRI:OTB:1,2013-03-16T17:59:00Z,27.9320,-82.6475,0.0,9.001668,325.4363,-9999.0,'1111122,1111122,1111122' 
FWRI,ioos:station:FWRI:OTB:1,2013-03-16T18:59:00Z,27.9320,-82.6475,0.0,6.59,292.2289,-9999.0,'1111122,1111122,1111122' 
FWRI,ioos:station:FWRI:OTB:1,2013-03-16T19:59:00Z,27.9320,-82.6475,0.0,8.548333,271.5966,-9999.0,'1111122,1111122,1111122' 
FWRI,ioos:station:FWRI:OTB:1,2013-03-16T20:59:00Z,27.9320,-82.6475,0.0,16.92,207.7404,-9999.0,'1111122,1111122,1111122' 
FWRI,ioos:station:FWRI:OTB:1,2013-03-16T21:59:00Z,27.9320,-82.6475,0.0,18.77,209.2508,-9999.0,'1111122,1111122,1111122' 
FWRI,ioos:station:FWRI:OTB:1,2013-03-16T22:59:00Z,27.9320,-82.6475,0.0,20.20667,209.9456,-9999.0,'1111122,1111122,1111122' 
FWRI,ioos:station:FWRI:OTB:1,2013-03-16T23:59:00Z,27.9320,-82.6475,0.0,18.71167,201.1232,-9999.0,'1111122,1111122,1111122' 
FWRI,ioos:station:FWRI:OTB:1,2013-03-17T00:59:00Z,27.9320,-82.6475,0.0,15.94833,195.6733,-9999.0,'1111122,1111122,1111122' 
FWRI,ioos:station:FWRI:OTB:1,2013-03-17T01:59:00Z,27.9320,-82.6475,0.0,10.77333,189.6295,-9999.0,'1111122,1111122,1111122' 
FWRI,ioos:station:FWRI:OTB:1,2013-03-17T02:59:00Z,27.9320,-82.6475,0.0,8.603333,187.2298,-9999.0,'1111122,1111122,1111122' 
FWRI,ioos:station:FWRI:OTB:1,2013-03-17T03:59:00Z,27.9320,-82.6475,0.0,8.275,196.1016,-9999.0,'1111122,1111122,1111122' 
FWRI,ioos:station:FWRI:OTB:1,2013-03-17T04:59:00Z,27.9320,-82.6475,0.0,7.366666,203.1898,-9999.0,'1111122,1111122,1111122' 
FWRI,ioos:station:FWRI:OTB:1,2013-03-17T05:59:00Z,27.9320,-82.6475,0.0,6.806666,205.3673,-9999.0,'1111122,1111122,1111122' 
FWRI,ioos:station:FWRI:OTB:1,2013-03-17T06:59:00Z,27.9320,-82.6475,0.0,4.984999,242.786,-9999.0,'1111122,1111122,1111122' 
FWRI,ioos:station:FWRI:OTB:1,2013-03-17T07:59:00Z,27.9320,-82.6475,0.0,10.195,236.5459,-9999.0,'1111122,1111122,1111122' 
FWRI,ioos:station:FWRI:OTB:1,2013-03-17T08:59:00Z,27.9320,-82.6475,0.0,11.18,291.3885,-9999.0,'1111122,1111122,1111122' 
FWRI,ioos:station:FWRI:OTB:1,2013-03-17T09:59:00Z,27.9320,-82.6475,0.0,12.83167,305.0508,-9999.0,'1111122,1111122,1111122' 
FWRI,ioos:station:FWRI:OTB:1,2013-03-17T10:59:00Z,27.9320,-82.6475,0.0,13.245,310.7186,-9999.0,'1111122,1111122,1111122' 
FWRI,ioos:station:FWRI:OTB:1,2013-03-17T13:59:00Z,27.9320,-82.6475,0.0,14.14286,321.0656,-9999.0,'1111122,1111122,1111122' 
FWRI,ioos:station:FWRI:OTB:1,2013-03-17T14:59:00Z,27.9320,-82.6475,0.0,13.075,308.6624,-9999.0,'1111122,1111122,1111122' 
FWRI,ioos:station:FWRI:OTB:1,2013-03-17T15:59:00Z,27.9320,-82.6475,0.0,9.506665,317.0029,-9999.0,'1111122,1111122,1111122' 
FWRI,ioos:station:FWRI:OTB:1,2013-03-17T16:59:00Z,27.9320,-82.6475,0.0,11.20666,322.7756,-9999.0,'1111122,1111122,1111122' 
FWRI,ioos:station:FWRI:OTB:1,2013-03-17T17:59:00Z,27.9320,-82.6475,0.0,11.78,331.8713,-9999.0,'1111122,1111122,1111122' 
FWRI,ioos:station:FWRI:OTB:1,2013-03-17T18:59:00Z,27.9320,-82.6475,0.0,16.34833,324.6369,-9999.0,'1111122,1111122,1111122' 
FWRI,ioos:station:FWRI:OTB:1,2013-03-17T19:59:00Z,27.9320,-82.6475,0.0,19.88834,277.6674,-9999.0,'1111122,1111122,1111122' 
FWRI,ioos:station:FWRI:OTB:1,2013-03-17T20:59:00Z,27.9320,-82.6475,0.0,17.94,266.9688,-9999.0,'1111122,1111122,1111122' 
FWRI,ioos:station:FWRI:OTB:1,2013-03-17T21:59:00Z,27.9320,-82.6475,0.0,16.99167,253.6682,-9999.0,'1111122,1111122,1111122' 
FWRI,ioos:station:FWRI:OTB:1,2013-03-17T22:59:00Z,27.9320,-82.6475,0.0,15.05333,244.3898,-9999.0,'1111122,1111122,1111122' 
FWRI,ioos:station:FWRI:OTB:1,2013-03-17T23:59:00Z,27.9320,-82.6475,0.0,10.44167,230.5549,-9999.0,'1111122,1111122,1111122' 
FWRI,ioos:station:FWRI:OTB:1,2013-03-18T00:59:00Z,27.9320,-82.6475,0.0,5.699999,187.425,-9999.0,'1111122,1111122,1111122' 
FWRI,ioos:station:FWRI:OTB:1,2013-03-18T01:59:00Z,27.9320,-82.6475,0.0,7.77,172.411,-9999.0,'1111122,1111122,1111122' 
FWRI,ioos:station:FWRI:OTB:1,2013-03-18T02:59:00Z,27.9320,-82.6475,0.0,9.395,202.194,-9999.0,'1111122,1111122,1111122' 
FWRI,ioos:station:FWRI:OTB:1,2013-03-18T03:59:00Z,27.9320,-82.6475,0.0,9.738332,182.0103,-9999.0,'1111122,1111122,1111122' 
FWRI,ioos:station:FWRI:OTB:1,2013-03-18T04:59:00Z,27.9320,-82.6475,0.0,13.93666,299.2873,-9999.0,'1111122,1111122,1111122' 
FWRI,ioos:station:FWRI:OTB:1,2013-03-18T05:59:00Z,27.9320,-82.6475,0.0,14.52,317.1769,-9999.0,'1111122,1111122,1111122' 
FWRI,ioos:station:FWRI:OTB:1,2013-03-18T06:59:00Z,27.9320,-82.6475,0.0,8.576665,332.3646,-9999.0,'1111122,1111122,1111122' 
FWRI,ioos:station:FWRI:OTB:1,2013-03-18T07:59:00Z,27.9320,-82.6475,0.0,7.385001,338.0232,-9999.0,'1111122,1111122,1111122' 
FWRI,ioos:station:FWRI:OTB:1,2013-03-18T08:59:00Z,27.9320,-82.6475,0.0,14.60833,325.3628,-9999.0,'1111122,1111122,1111122' 
FWRI,ioos:station:FWRI:OTB:1,2013-03-18T09:59:00Z,27.9320,-82.6475,0.0,12.23167,320.9466,-9999.0,'1111122,1111122,1111122' 
FWRI,ioos:station:FWRI:OTB:1,2013-03-18T10:59:00Z,27.9320,-82.6475,0.0,11.475,324.0785,-9999.0,'1111122,1111122,1111122' 
FWRI,ioos:station:FWRI:OTB:1,2013-03-18T11:59:00Z,27.9320,-82.6475,0.0,13.65667,328.1481,-9999.0,'1111122,1111122,1111122' 
FWRI,ioos:station:FWRI:OTB:1,2013-03-18T12:59:00Z,27.9320,-82.6475,0.0,20.99667,316.5374,-9999.0,'1111122,1111122,1111122' 
FWRI,ioos:station:FWRI:OTB:1,2013-03-18T13:59:00Z,27.9320,-82.6475,0.0,24.275,291.2227,-9999.0,'1111122,1111122,1111122' 
FWRI,ioos:station:FWRI:OTB:1,2013-03-18T14:59:00Z,27.9320,-82.6475,0.0,13.555,280.9207,-9999.0,'1111122,1111122,1111122' 
FWRI,ioos:station:FWRI:OTB:1,2013-03-18T15:59:00Z,27.9320,-82.6475,0.0,10.17167,297.3896,-9999.0,'1111122,1111122,1111122' 
FWRI,ioos:station:FWRI:OTB:1,2013-03-18T16:59:00Z,27.9320,-82.6475,0.0,5.073333,260.4825,-9999.0,'1111122,1111122,1111122' 
FWRI,ioos:station:FWRI:OTB:1,2013-03-18T17:59:00Z,27.9320,-82.6475,0.0,11.12833,277.9277,-9999.0,'1111122,1111122,1111122' 
FWRI,ioos:station:FWRI:OTB:1,2013-03-18T18:59:00Z,27.9320,-82.6475,0.0,27.63333,283.6872,-9999.0,'1111122,1111122,1111122' 
FWRI,ioos:station:FWRI:OTB:1,2013-03-18T19:59:00Z,27.9320,-82.6475,0.0,24.21833,274.8162,-9999.0,'1111122,1111122,1111122' 
FWRI,ioos:station:FWRI:OTB:1,2013-03-18T20:59:00Z,27.9320,-82.6475,0.0,20.345,270.7365,-9999.0,'1111122,1111122,1111122' 
FWRI,ioos:station:FWRI:OTB:1,2013-03-18T21:59:00Z,27.9320,-82.6475,0.0,12.745,262.6143,-9999.0,'1111122,1111122,1111122' 
FWRI,ioos:station:FWRI:OTB:1,2013-03-18T22:59:00Z,27.9320,-82.6475,0.0,11.18,248.7137,-9999.0,'1111122,1111122,1111122' 
FWRI,ioos:station:FWRI:OTB:1,2013-03-18T23:59:00Z,27.9320,-82.6475,0.0,17.62333,216.1981,-9999.0,'1111122,1111122,1111122' 
FWRI,ioos:station:FWRI:OTB:1,2013-03-19T00:59:00Z,27.9320,-82.6475,0.0,19.825,238.1256,-9999.0,'1111122,1111122,1111122' 
FWRI,ioos:station:FWRI:OTB:1,2013-03-19T01:59:00Z,27.9320,-82.6475,0.0,23.79834,256.7071,-9999.0,'1111122,1111122,1111122' 
FWRI,ioos:station:FWRI:OTB:1,2013-03-19T02:59:00Z,27.9320,-82.6475,0.0,11.755,231.6586,-9999.0,'1111122,1111122,1111122' 
FWRI,ioos:station:FWRI:OTB:1,2013-03-19T03:59:00Z,27.9320,-82.6475,0.0,13.83,233.0685,-9999.0,'1111122,1111122,1111122' 
FWRI,ioos:station:FWRI:OTB:1,2013-03-19T04:59:00Z,27.9320,-82.6475,0.0,6.629999,225.0512,-9999.0,'1111122,1111122,1111122' 
FWRI,ioos:station:FWRI:OTB:1,2013-03-19T05:59:00Z,27.9320,-82.6475,0.0,6.995001,270.5977,-9999.0,'1111122,1111122,1111122' 
FWRI,ioos:station:FWRI:OTB:1,2013-03-19T06:59:00Z,27.9320,-82.6475,0.0,8.753335,345.6282,-9999.0,'1111122,1111122,1111122' 
FWRI,ioos:station:FWRI:OTB:1,2013-03-19T07:59:00Z,27.9320,-82.6475,0.0,9.300001,97.12057,-9999.0,'1111122,1111122,1111122' 
FWRI,ioos:station:FWRI:OTB:1,2013-03-19T08:59:00Z,27.9320,-82.6475,0.0,12.37167,93.33126,-9999.0,'1111122,1111122,1111122' 
FWRI,ioos:station:FWRI:OTB:1,2013-03-19T09:59:00Z,27.9320,-82.6475,0.0,9.298334,168.2673,-9999.0,'1111122,1111122,1111122' 
FWRI,ioos:station:FWRI:OTB:1,2013-03-19T10:59:00Z,27.9320,-82.6475,0.0,5.981668,192.518,-9999.0,'1111122,1111122,1111122' 
FWRI,ioos:station:FWRI:OTB:1,2013-03-19T11:59:00Z,27.9320,-82.6475,0.0,6.048333,156.5488,-9999.0,'1111122,1111122,1111122' 
FWRI,ioos:station:FWRI:OTB:1,2013-03-19T15:59:00Z,27.9320,-82.6475,0.0,6.427272,94.82789,-9999.0,'1111122,1111122,1111122' 
FWRI,ioos:station:FWRI:OTB:1,2013-03-19T16:59:00Z,27.9320,-82.6475,0.0,6.573333,121.4196,-9999.0,'1111122,1111122,1111122' 
FWRI,ioos:station:FWRI:OTB:1,2013-03-19T17:59:00Z,27.9320,-82.6475,0.0,7.513333,179.8679,-9999.0,'1111122,1111122,1111122' 
FWRI,ioos:station:FWRI:OTB:1,2013-03-19T18:59:00Z,27.9320,-82.6475,0.0,5.75,157.3105,-9999.0,'1111122,1111122,1111122' 
FWRI,ioos:station:FWRI:OTB:1,2013-03-19T19:59:00Z,27.9320,-82.6475,0.0,5.95,189.8158,-9999.0,'1111122,1111122,1111122' 
FWRI,ioos:station:FWRI:OTB:1,2013-03-19T20:59:00Z,27.9320,-82.6475,0.0,14.13167,145.1731,-9999.0,'1111122,1111122,1111122' 
FWRI,ioos:station:FWRI:OTB:1,2013-03-19T21:59:00Z,27.9320,-82.6475,0.0,17.46,158.3911,-9999.0,'1111122,1111122,1111122' 
FWRI,ioos:station:FWRI:OTB:1,2013-03-19T22:59:00Z,27.9320,-82.6475,0.0,12.50167,153.7186,-9999.0,'1111122,1111122,1111122' 
FWRI,ioos:station:FWRI:OTB:1,2013-03-19T23:59:00Z,27.9320,-82.6475,0.0,15.97333,146.8476,-9999.0,'1111122,1111122,1111122' 
FWRI,ioos:station:FWRI:OTB:1,2013-03-20T00:59:00Z,27.9320,-82.6475,0.0,10.91833,148.2318,-9999.0,'1111122,1111122,1111122' 
FWRI,ioos:station:FWRI:OTB:1,2013-03-20T01:59:00Z,27.9320,-82.6475,0.0,12.87833,141.2817,-9999.0,'1111122,1111122,1111122' 
FWRI,ioos:station:FWRI:OTB:1,2013-03-20T02:59:00Z,27.9320,-82.6475,0.0,9.365,142.6826,-9999.0,'1111122,1111122,1111122' 
FWRI,ioos:station:FWRI:OTB:1,2013-03-20T03:59:00Z,27.9320,-82.6475,0.0,8.856666,132.5808,-9999.0,'1111122,1111122,1111122' 
FWRI,ioos:station:FWRI:OTB:1,2013-03-20T04:59:00Z,27.9320,-82.6475,0.0,10.0,134.755,-9999.0,'1111122,1111122,1111122' 
FWRI,ioos:station:FWRI:OTB:1,2013-03-20T05:59:00Z,27.9320,-82.6475,0.0,7.654998,121.4518,-9999.0,'1111122,1111122,1111122' 
FWRI,ioos:station:FWRI:OTB:1,2013-03-20T06:59:00Z,27.9320,-82.6475,0.0,10.83,114.9604,-9999.0,'1111122,1111122,1111122' 
FWRI,ioos:station:FWRI:OTB:1,2013-03-20T07:59:00Z,27.9320,-82.6475,0.0,10.14666,63.2722,-9999.0,'1111122,1111122,1111122' 
FWRI,ioos:station:FWRI:OTB:1,2013-03-20T08:59:00Z,27.9320,-82.6475,0.0,5.639999,55.56232,-9999.0,'1111122,1111122,1111122' 
FWRI,ioos:station:FWRI:OTB:1,2013-03-20T09:59:00Z,27.9320,-82.6475,0.0,8.623334,65.97141,-9999.0,'1111122,1111122,1111122' 
FWRI,ioos:station:FWRI:OTB:1,2013-03-20T10:59:00Z,27.9320,-82.6475,0.0,8.976667,55.29899,-9999.0,'1111122,1111122,1111122' 
FWRI,ioos:station:FWRI:OTB:1,2013-03-20T11:59:00Z,27.9320,-82.6475,0.0,16.29167,355.9781,-9999.0,'1111122,1111122,1111122' 
FWRI,ioos:station:FWRI:OTB:1,2013-03-20T12:59:00Z,27.9320,-82.6475,0.0,13.17667,357.9241,-9999.0,'1111122,1111122,1111122' 
FWRI,ioos:station:FWRI:OTB:1,2013-03-20T13:59:00Z,27.9320,-82.6475,0.0,10.62167,347.1557,-9999.0,'1111122,1111122,1111122' 
FWRI,ioos:station:FWRI:OTB:1,2013-03-20T14:59:00Z,27.9320,-82.6475,0.0,8.020001,339.6938,-9999.0,'1111122,1111122,1111122' 
FWRI,ioos:station:FWRI:OTB:1,2013-03-20T15:59:00Z,27.9320,-82.6475,0.0,7.463335,336.7444,-9999.0,'1111122,1111122,1111122' 
FWRI,ioos:station:FWRI:OTB:1,2013-03-20T16:59:00Z,27.9320,-82.6475,0.0,9.901666,332.2057,-9999.0,'1111122,1111122,1111122' 
FWRI,ioos:station:FWRI:OTB:1,2013-03-20T17:59:00Z,27.9320,-82.6475,0.0,22.09334,204.3513,-9999.0,'1111122,1111122,1111122' 
FWRI,ioos:station:FWRI:OTB:1,2013-03-20T18:59:00Z,27.9320,-82.6475,0.0,24.54667,161.2341,-9999.0,'1111122,1111122,1111122' 
FWRI,ioos:station:FWRI:OTB:1,2013-03-20T19:59:00Z,27.9320,-82.6475,0.0,18.34,153.8258,-9999.0,'1111122,1111122,1111122' 
FWRI,ioos:station:FWRI:OTB:1,2013-03-20T20:59:00Z,27.9320,-82.6475,0.0,11.12167,163.7494,-9999.0,'1111122,1111122,1111122' 
FWRI,ioos:station:FWRI:OTB:1,2013-03-20T21:59:00Z,27.9320,-82.6475,0.0,13.04333,159.5904,-9999.0,'1111122,1111122,1111122' 
FWRI,ioos:station:FWRI:OTB:1,2013-03-20T22:59:00Z,27.9320,-82.6475,0.0,29.515,151.3511,-9999.0,'1111122,1111122,1111122' 
FWRI,ioos:station:FWRI:OTB:1,2013-03-20T23:59:00Z,27.9320,-82.6475,0.0,28.54667,141.3833,-9999.0,'1111122,1111122,1111122' 
FWRI,ioos:station:FWRI:OTB:1,2013-03-21T00:59:00Z,27.9320,-82.6475,0.0,31.24167,95.17575,-9999.0,'1111122,1111122,1111122' 
FWRI,ioos:station:FWRI:OTB:1,2013-03-21T01:59:00Z,27.9320,-82.6475,0.0,16.40667,79.57863,-9999.0,'1111122,1111122,1111122' 
FWRI,ioos:station:FWRI:OTB:1,2013-03-21T02:59:00Z,27.9320,-82.6475,0.0,8.996667,41.58499,-9999.0,'1111122,1111122,1111122' 
FWRI,ioos:station:FWRI:OTB:1,2013-03-21T03:59:00Z,27.9320,-82.6475,0.0,13.345,112.0118,-9999.0,'1111122,1111122,1111122' 
FWRI,ioos:station:FWRI:OTB:1,2013-03-21T04:59:00Z,27.9320,-82.6475,0.0,15.65167,137.6632,-9999.0,'1111122,1111122,1111122' 
FWRI,ioos:station:FWRI:OTB:1,2013-03-21T05:59:00Z,27.9320,-82.6475,0.0,17.05166,137.5146,-9999.0,'1111122,1111122,1111122' 
FWRI,ioos:station:FWRI:OTB:1,2013-03-21T06:59:00Z,27.9320,-82.6475,0.0,18.11167,136.1197,-9999.0,'1111122,1111122,1111122' 
FWRI,ioos:station:FWRI:OTB:1,2013-03-21T07:59:00Z,27.9320,-82.6475,0.0,20.55,129.6092,-9999.0,'1111122,1111122,1111122' 
FWRI,ioos:station:FWRI:OTB:1,2013-03-21T08:59:00Z,27.9320,-82.6475,0.0,23.635,112.7735,-9999.0,'1111122,1111122,1111122' 
FWRI,ioos:station:FWRI:OTB:1,2013-03-21T09:59:00Z,27.9320,-82.6475,0.0,27.58667,97.27085,-9999.0,'1111122,1111122,1111122' 
FWRI,ioos:station:FWRI:OTB:1,2013-03-21T10:59:00Z,27.9320,-82.6475,0.0,22.88166,64.69305,-9999.0,'1111122,1111122,1111122' 
FWRI,ioos:station:FWRI:OTB:1,2013-03-21T11:59:00Z,27.9320,-82.6475,0.0,22.84167,60.10499,-9999.0,'1111122,1111122,1111122' 
FWRI,ioos:station:FWRI:OTB:1,2013-03-21T12:59:00Z,27.9320,-82.6475,0.0,21.97833,55.41514,-9999.0,'1111122,1111122,1111122' 
FWRI,ioos:station:FWRI:OTB:1,2013-03-21T13:59:00Z,27.9320,-82.6475,0.0,24.04667,61.14023,-9999.0,'1111122,1111122,1111122' 
FWRI,ioos:station:FWRI:OTB:1,2013-03-21T14:59:00Z,27.9320,-82.6475,0.0,24.165,63.96172,-9999.0,'1111122,1111122,1111122' 
FWRI,ioos:station:FWRI:OTB:1,2013-03-21T15:59:00Z,27.9320,-82.6475,0.0,19.63833,72.11927,-9999.0,'1111122,1111122,1111122' 
FWRI,ioos:station:FWRI:OTB:1,2013-03-21T16:59:00Z,27.9320,-82.6475,0.0,15.54667,72.68575,-9999.0,'1111122,1111122,1111122' 
FWRI,ioos:station:FWRI:OTB:1,2013-03-21T17:59:00Z,27.9320,-82.6475,0.0,17.21,93.41586,-9999.0,'1111122,1111122,1111122' 
FWRI,ioos:station:FWRI:OTB:1,2013-03-21T18:59:00Z,27.9320,-82.6475,0.0,18.61333,106.925,-9999.0,'1111122,1111122,1111122' 
FWRI,ioos:station:FWRI:OTB:1,2013-03-21T19:59:00Z,27.9320,-82.6475,0.0,19.48,111.4037,-9999.0,'1111122,1111122,1111122' 
FWRI,ioos:station:FWRI:OTB:1,2013-03-21T20:59:00Z,27.9320,-82.6475,0.0,16.98833,123.9055,-9999.0,'1111122,1111122,1111122' 
FWRI,ioos:station:FWRI:OTB:1,2013-03-21T21:59:00Z,27.9320,-82.6475,0.0,19.98,127.6066,-9999.0,'1111122,1111122,1111122' 
FWRI,ioos:station:FWRI:OTB:1,2013-03-21T22:59:00Z,27.9320,-82.6475,0.0,19.61167,129.2479,-9999.0,'1111122,1111122,1111122' 
FWRI,ioos:station:FWRI:OTB:1,2013-03-21T23:59:00Z,27.9320,-82.6475,0.0,16.72333,124.8573,-9999.0,'1111122,1111122,1111122' 
FWRI,ioos:station:FWRI:OTB:1,2013-03-22T00:59:00Z,27.9320,-82.6475,0.0,13.55667,127.9262,-9999.0,'1111122,1111122,1111122' 